When you browse on this site, cookies collect data to enhance your experience and personalize the content and advertising you see.
Visit our Privacy Policy to learn more. By continuing to use the site, you agree to this use of cookies and data.
  • Em Portugal
  • Lista de países
  • Para 7 dias
  • Temperatura da água
  • Mapas de satélite
  • Mapa do tempo
  • Widgets de tempo
  • user-avatar
    Iniciar Sessão

    Previsão horária em Palanga

    Hoje, 17 Janeiro, Quinta-feira

    Tempo Temperatura Precipitação Vento Pressão Humidade
    00:00 +2°C° 0.6 mm 11 m/s 745 mmHg 93%
    01:00 +2°C° 0.6 mm 11 m/s 744 mmHg 92%
    02:00 +2°C° 0.7 mm 11 m/s 744 mmHg 92%
    03:00 +1°C° 0.7 mm 11 m/s 743 mmHg 92%
    04:00 +1°C° 0.7 mm 10 m/s 743 mmHg 92%
    05:00 +1°C° 1.2 mm 10 m/s 742 mmHg 91%
    06:00 +1°C° 1.2 mm 11 m/s 742 mmHg 91%
    07:00 +1°C° 1.2 mm 11 m/s 741 mmHg 90%
    08:00 +1°C° 0.8 mm 11 m/s 741 mmHg 90%
    09:00 +1°C° 0.8 mm 11 m/s 741 mmHg 89%
    10:00 +1°C° 0.8 mm 11 m/s 740 mmHg 88%
    11:00 +1°C° 0.5 mm 11 m/s 740 mmHg 86%
    12:00 +1°C° 0.5 mm 11 m/s 741 mmHg 84%
    13:00 +2°C° 0.5 mm 11 m/s 741 mmHg 82%
    14:00 +1°C° 0.2 mm 10 m/s 741 mmHg 82%
    15:00 +1°C° 0.2 mm 10 m/s 742 mmHg 82%
    16:00 +1°C° 0.2 mm 10 m/s 742 mmHg 83%
    17:00 +1°C° 1.4 mm 10 m/s 742 mmHg 85%
    18:00 0°C° 1.4 mm 9 m/s 743 mmHg 87%
    19:00 0°C° 1.4 mm 8 m/s 743 mmHg 89%
    20:00 0°C° 1.3 mm 7 m/s 743 mmHg 90%
    21:00 -1°C° 1.3 mm 6 m/s 744 mmHg 90%
    22:00 -1°C° 1.3 mm 5 m/s 744 mmHg 91%
    23:00 -1°C° 0.6 mm 5 m/s 745 mmHg 90%

    Amanhã, 18 Janeiro, Sexta-feira

    Tempo Temperatura Precipitação Vento Pressão Humidade
    00:00 -3°C° 0.6 mm 6 m/s 746 mmHg 90%
    01:00 -4°C° 0.6 mm 7 m/s 746 mmHg 89%
    02:00 -4°C° 0 mm 6 m/s 747 mmHg 86%
    03:00 -4°C° 0 mm 6 m/s 747 mmHg 84%
    04:00 -5°C° 0 mm 5 m/s 748 mmHg 81%
    05:00 -5°C° 0 mm 5 m/s 748 mmHg 81%
    06:00 -5°C° 0 mm 5 m/s 749 mmHg 81%
    07:00 -4°C° 0 mm 4 m/s 750 mmHg 80%
    08:00 -5°C° 0 mm 5 m/s 750 mmHg 78%
    09:00 -4°C° 0 mm 5 m/s 751 mmHg 77%
    10:00 -4°C° 0 mm 5 m/s 752 mmHg 75%
    11:00 -3°C° 0.1 mm 6 m/s 753 mmHg 74%
    12:00 -3°C° 0.1 mm 6 m/s 754 mmHg 72%
    13:00 -3°C° 0.1 mm 7 m/s 754 mmHg 71%
    14:00 -3°C° 0.2 mm 7 m/s 755 mmHg 71%
    15:00 -3°C° 0.2 mm 7 m/s 755 mmHg 72%
    16:00 -4°C° 0.2 mm 7 m/s 756 mmHg 72%
    17:00 -5°C° 0.1 mm 8 m/s 756 mmHg 70%
    18:00 -5°C° 0.1 mm 8 m/s 756 mmHg 67%
    19:00 -5°C° 0.1 mm 8 m/s 757 mmHg 65%
    20:00 -5°C° 0.2 mm 8 m/s 757 mmHg 64%
    21:00 -4°C° 0.2 mm 8 m/s 758 mmHg 62%
    22:00 -4°C° 0.2 mm 8 m/s 758 mmHg 61%
    23:00 -4°C° 0.1 mm 8 m/s 759 mmHg 62%

    Depois de amanhã, 19 Janeiro, Sábado

    Tempo Temperatura Precipitação Vento Pressão Humidade
    00:00 -3°C° 0.1 mm 7 m/s 759 mmHg 63%
    01:00 -3°C° 0.1 mm 7 m/s 759 mmHg 65%
    02:00 -3°C° 0.1 mm 7 m/s 759 mmHg 66%
    03:00 -3°C° 0.1 mm 7 m/s 759 mmHg 67%
    04:00 -3°C° 0.1 mm 7 m/s 759 mmHg 69%
    05:00 -2°C° 0.1 mm 7 m/s 759 mmHg 69%
    06:00 -2°C° 0.1 mm 7 m/s 759 mmHg 69%
    07:00 -2°C° 0.1 mm 8 m/s 759 mmHg 69%
    08:00 -2°C° 0.2 mm 7 m/s 760 mmHg 72%
    09:00 -2°C° 0.2 mm 7 m/s 760 mmHg 74%
    10:00 -2°C° 0.2 mm 7 m/s 760 mmHg 77%
    11:00 -2°C° 0.1 mm 6 m/s 760 mmHg 76%
    12:00 -1°C° 0.1 mm 5 m/s 760 mmHg 74%
    13:00 -1°C° 0.1 mm 5 m/s 761 mmHg 73%
    14:00 -2°C° 0 mm 4 m/s 761 mmHg 73%
    15:00 -2°C° 0 mm 4 m/s 761 mmHg 73%
    16:00 -2°C° 0 mm 3 m/s 761 mmHg 72%
    17:00 -2°C° 0 mm 3 m/s 761 mmHg 72%
    18:00 -2°C° 0 mm 3 m/s 762 mmHg 71%
    19:00 -2°C° 0 mm 3 m/s 762 mmHg 70%
    20:00 -2°C° 0 mm 3 m/s 762 mmHg 70%
    21:00 -2°C° 0 mm 3 m/s 762 mmHg 70%
    22:00 -2°C° 0 mm 3 m/s 762 mmHg 70%
    23:00 -2°C° 0 mm 3 m/s 762 mmHg 71%

    20 Janeiro, Domingo

    Tempo Temperatura Precipitação Vento Pressão Humidade
    00:00 -2°C° 0 mm 3 m/s 762 mmHg 71%
    01:00 -2°C° 0 mm 3 m/s 762 mmHg 72%
    02:00 -2°C° 0 mm 3 m/s 762 mmHg 74%
    03:00 -4°C° 0 mm 3 m/s 761 mmHg 76%
    04:00 -4°C° 0 mm 4 m/s 761 mmHg 78%
    05:00 -3°C° 0 mm 4 m/s 761 mmHg 78%
    06:00 -3°C° 0 mm 4 m/s 761 mmHg 78%
    07:00 -2°C° 0 mm 4 m/s 761 mmHg 78%
    08:00 -2°C° 0 mm 4 m/s 761 mmHg 78%
    09:00 -2°C° 0 mm 4 m/s 761 mmHg 78%
    10:00 -2°C° 0 mm 4 m/s 761 mmHg 78%
    11:00 -1°C° 0 mm 4 m/s 760 mmHg 77%
    12:00 -1°C° 0 mm 4 m/s 760 mmHg 75%
    13:00 -1°C° 0 mm 4 m/s 760 mmHg 73%
    14:00 -2°C° 0.5 mm 6 m/s 760 mmHg 77%
    15:00 -2°C° 0.5 mm 7 m/s 759 mmHg 81%
    16:00 -4°C° 0.5 mm 8 m/s 759 mmHg 85%
    17:00 -3°C° 0.1 mm 7 m/s 759 mmHg 82%
    18:00 -4°C° 0.1 mm 7 m/s 759 mmHg 79%
    19:00 -6°C° 0.1 mm 7 m/s 759 mmHg 76%
    20:00 -5°C° 0 mm 6 m/s 759 mmHg 77%
    21:00 -5°C° 0 mm 6 m/s 760 mmHg 78%
    22:00 -5°C° 0 mm 6 m/s 760 mmHg 79%
    23:00 -6°C° 0.1 mm 7 m/s 761 mmHg 78%

    21 Janeiro, Segunda-feira

    Tempo Temperatura Precipitação Vento Pressão Humidade
    00:00 -6°C° 0.1 mm 7 m/s 761 mmHg 78%
    01:00 -6°C° 0.1 mm 8 m/s 762 mmHg 78%
    02:00 -7°C° 0 mm 7 m/s 762 mmHg 78%
    03:00 -6°C° 0 mm 6 m/s 763 mmHg 78%
    04:00 -6°C° 0 mm 6 m/s 763 mmHg 78%
    05:00 -7°C° 0 mm 5 m/s 764 mmHg 79%
    06:00 -7°C° 0 mm 4 m/s 764 mmHg 80%
    07:00 -7°C° 0 mm 4 m/s 765 mmHg 80%
    08:00 -5°C° 0 mm 4 m/s 765 mmHg 79%
    09:00 -5°C° 0 mm 4 m/s 766 mmHg 78%
    10:00 -4°C° 0 mm 4 m/s 766 mmHg 77%
    11:00 -4°C° 0 mm 5 m/s 766 mmHg 75%
    12:00 -4°C° 0 mm 5 m/s 766 mmHg 73%
    13:00 -3°C° 0 mm 6 m/s 766 mmHg 70%
    14:00 -4°C° 0 mm 6 m/s 766 mmHg 72%
    15:00 -4°C° 0 mm 6 m/s 766 mmHg 73%
    16:00 -5°C° 0 mm 5 m/s 766 mmHg 75%
    17:00 -5°C° 0 mm 5 m/s 766 mmHg 75%
    18:00 -5°C° 0 mm 6 m/s 767 mmHg 76%
    19:00 -4°C° 0 mm 6 m/s 767 mmHg 76%
    20:00 -5°C° 0 mm 5 m/s 767 mmHg 76%
    21:00 -5°C° 0 mm 5 m/s 767 mmHg 76%
    22:00 -5°C° 0 mm 5 m/s 767 mmHg 76%
    23:00 -5°C° 0 mm 5 m/s 767 mmHg 76%

    22 Janeiro, Terça-feira

    Tempo Temperatura Precipitação Vento Pressão Humidade
    00:00 -5°C° 0 mm 5 m/s 767 mmHg 77%
    01:00 -3°C° 0 mm 4 m/s 767 mmHg 77%
    02:00 -3°C° 0 mm 4 m/s 767 mmHg 78%
    03:00 -3°C° 0 mm 4 m/s 766 mmHg 78%
    04:00 -3°C° 0 mm 4 m/s 766 mmHg 79%
    05:00 -3°C° 0.1 mm 4 m/s 766 mmHg 80%
    06:00 -2°C° 0.1 mm 3 m/s 766 mmHg 81%
    07:00 -2°C° 0.1 mm 3 m/s 766 mmHg 83%
    08:00 -2°C° 0.1 mm 3 m/s 766 mmHg 83%
    09:00 -1°C° 0.1 mm 2 m/s 766 mmHg 83%
    10:00 -1°C° 0.1 mm 2 m/s 766 mmHg 83%
    11:00 -1°C° 0.1 mm 2 m/s 766 mmHg 83%
    12:00 +1°C° 0.1 mm 1 m/s 765 mmHg 83%
    13:00 +2°C° 0.1 mm 1 m/s 765 mmHg 84%
    14:00 +1°C° 0.1 mm 1 m/s 765 mmHg 84%
    15:00 +1°C° 0.1 mm 1 m/s 765 mmHg 85%
    16:00 0°C° 0.1 mm 1 m/s 765 mmHg 85%
    17:00 -3°C° 0 mm 2 m/s 765 mmHg 87%
    18:00 -3°C° 0 mm 2 m/s 765 mmHg 89%
    19:00 -5°C° 0 mm 3 m/s 765 mmHg 90%
    20:00 -5°C° 0 mm 4 m/s 765 mmHg 91%
    21:00 -7°C° 0 mm 4 m/s 765 mmHg 91%
    22:00 -7°C° 0 mm 5 m/s 765 mmHg 92%
    23:00 -7°C° 0 mm 5 m/s 765 mmHg 91%
    Mostrar mais